Dewpoint
63 63 63 63 63 63 63 63 63 63 63 63 63 63 63 62 62 62 63 63 63 63 63 63 63 63 63 62 62 62 62 61 61 61 61 61 61 62 62 62 63 63 63 63 63 63 63 63 63 63 63 62 62 62 62 62 62 61 61 61 61 61 61 61 62 62 62 63 63
63 63 63 62 62 63 63 63 63 63 63 63 63 63 63 62 62 62 62 63 63 63 63 63 63 63 62 62 62 62 61 61 61 61 61 61 61 61 61 61 62 62 63 63 63 63 63 63 63 62 62 62 62 61 61 61 61 61 60 60 60 60 60 60 60 61 61 61 61
63 63 63 63 62 62 62 62 62 62 62 63 63 63 63 63 63 62 63 63 63 63 63 63 62 62 62 62 61 61 61 61 61 60 60 60 60 60 60 60 61 61 62 63 63 63 63 63 62 62 61 61 61 61 61 61 61 60 59 59 59 59 59 59 59 59 60 60 60
63 63 63 62 62 62 62 62 62 62 62 62 62 62 62 63 63 63 63 63 63 63 63 63 62 62 62 61 61 61 61 61 60 60 60 60 60 60 61 61 60 61 61 62 62 62 62 62 62 62 62 61 61 61 60 59 60 60 59 59 59 59 58 58 58 58 59 59 59
62 62 62 62 62 62 62 63 62 62 62 62 62 62 62 62 62 62 62 62 62 62 62 63 62 62 61 61 61 61 61 61 60 59 59 60 60 61 61 61 60 60 60 61 62 62 62 62 62 62 62 62 61 60 59 59 59 59 58 58 59 58 58 57 57 57 57 58 58
61 61 61 62 62 62 62 62 62 62 62 62 61 61 61 62 62 62 62 62 62 62 62 62 62 61 61 61 61 61 61 61 60 60 59 59 60 60 61 61 60 60 61 61 61 62 62 62 61 61 61 61 60 59 59 59 58 58 57 57 58 58 57 56 56 57 57 57 57
61 61 61 62 62 62 62 62 62 62 62 61 61 61 61 61 61 61 62 62 62 62 62 61 61 61 61 61 61 61 61 61 61 60 60 59 60 60 61 61 61 61 61 61 61 61 62 62 61 60 59 59 58 58 58 58 58 57 57 56 57 57 57 57 56 56 56 56 56
61 61 61 62 62 62 62 62 62 61 61 61 61 61 61 61 61 61 61 61 61 61 61 61 61 61 60 60 60 60 60 60 60 60 60 60 59 59 60 60 60 60 60 60 61 61 62 62 61 60 59 58 56 56 57 58 58 57 57 56 56 57 57 56 56 56 56 56 55
61 61 61 61 62 62 62 62 61 61 61 61 61 61 61 61 61 61 61 60 60 60 60 60 60 60 60 60 60 60 60 60 60 60 60 60 59 59 59 60 60 60 60 60 61 61 61 61 60 60 59 57 56 56 56 57 57 57 57 56 55 55 55 55 55 55 55 55 55
60 61 61 61 62 62 61 61 61 61 61 61 61 61 61 61 61 60 60 59 59 59 59 59 59 60 60 59 59 59 59 59 59 59 60 59 59 59 59 59 59 59 60 60 60 61 61 60 60 59 58 57 56 56 56 57 57 57 56 56 55 54 54 54 54 54 54 54 54
61 61 61 61 61 61 61 61 61 61 61 61 61 61 61 60 60 60 60 59 59 59 59 59 59 59 59 59 59 59 59 59 59 59 59 59 59 59 59 59 59 59 59 60 60 60 60 59 59 58 57 56 56 56 56 56 56 56 55 55 54 54 53 53 53 53 54 54 54
61 61 61 61 61 61 61 60 60 60 60 60 60 61 61 61 60 60 60 59 59 59 59 59 59 59 59 59 59 59 59 59 59 59 59 59 59 59 59 59 59 59 59 59 60 60 59 59 58 57 57 56 55 55 56 56 56 55 55 54 54 54 53 52 53 53 53 53 53
61 61 61 61 61 61 60 60 60 60 60 60 60 61 61 61 61 60 60 59 59 59 59 59 59 59 59 59 58 58 58 58 58 59 59 59 59 58 58 58 58 58 59 59 59 59 59 58 58 57 56 55 55 55 55 56 55 55 54 54 54 54 54 53 53 52 52 53 53
61 61 61 60 60 60 60 59 59 59 59 59 60 60 61 61 60 60 59 59 59 59 59 59 59 59 58 58 58 58 58 58 58 58 58 57 57 57 57 56 57 57 58 58 58 58 58 58 57 57 56 55 55 55 55 55 55 55 54 54 54 54 54 54 53 53 53 53 53
60 61 61 60 60 60 59 59 59 59 59 59 59 59 60 60 60 59 59 59 59 59 59 59 59 59 58 58 58 57 57 57 57 57 57 57 57 56 56 56 56 56 56 56 57 57 57 56 56 56 56 55 55 55 55 55 55 54 54 54 54 54 53 53 53 53 54 53 53
58 59 60 60 60 60 59 59 59 58 58 58 58 58 59 59 59 59 59 59 59 59 59 59 58 58 58 58 57 57 57 57 57 56 56 56 56 56 55 55 55 55 55 55 55 55 55 55 55 55 55 55 55 54 54 54 54 54 54 53 53 53 52 52 52 53 53 53 52
55 57 59 60 60 60 60 59 59 59 59 58 58 58 58 58 59 59 59 59 59 59 59 58 58 58 57 57 57 57 56 56 56 56 56 56 56 55 55 54 54 54 54 54 54 54 54 54 54 54 54 54 54 53 53 53 53 53 52 52 52 51 51 51 51 51 51 51 51
52 54 56 58 59 60 60 60 59 59 59 59 58 58 58 58 59 59 59 59 59 59 58 58 57 57 57 57 57 56 56 56 56 56 56 55 55 55 54 54 54 53 53 53 53 53 53 53 53 53 53 53 52 52 52 52 51 51 50 50 50 50 50 50 50 50 50 50 50
50 51 53 55 57 59 59 60 60 59 59 59 59 59 59 59 59 59 59 59 59 59 58 57 57 57 57 56 56 56 56 56 56 55 55 55 54 54 54 53 53 52 52 52 52 52 52 52 51 51 51 50 50 50 50 50 50 50 50 49 49 49 49 48 48 49 49 49 49
49 50 51 53 54 56 58 59 59 59 60 60 59 59 59 59 59 58 58 59 59 58 58 57 57 57 56 56 55 55 56 56 55 55 55 54 54 54 53 52 52 52 51 51 51 51 51 51 51 50 50 50 49 49 49 49 48 48 48 48 48 48 48 47 47 48 48 49 49
47 48 49 50 52 54 55 56 56 57 58 59 59 59 59 59 59 59 59 59 59 58 58 57 57 56 56 55 55 55 55 56 55 54 54 54 54 53 52 52 51 51 51 51 51 50 50 50 50 49 49 48 48 48 47 47 47 47 47 47 47 47 47 47 47 47 48 48 48
46 46 48 49 50 51 52 53 53 54 55 56 57 58 58 59 59 59 59 59 59 59 58 58 57 56 56 56 55 55 54 54 54 54 53 53 52 52 51 51 51 51 50 50 50 50 50 49 49 48 48 47 47 47 47 46 46 46 46 46 46 47 46 46 46 46 47 47 46
45 46 47 48 49 50 51 51 51 52 53 54 54 55 55 55 55 56 57 58 58 58 58 58 57 56 56 55 55 54 53 53 52 52 52 51 51 50 50 50 50 50 50 50 49 49 49 48 48 47 47 46 47 46 46 45 45 45 45 45 45 46 46 45 45 45 45 45 45
45 45 46 47 48 49 50 50 50 51 52 52 52 52 52 52 52 53 54 55 56 57 57 57 56 55 55 54 54 53 52 51 50 50 50 50 49 49 49 49 49 50 50 49 49 49 48 47 47 46 46 46 46 46 45 45 45 45 45 44 44 45 45 44 45 45 44 44 43
45 45 46 47 47 48 49 49 50 50 50 50 50 50 50 50 51 51 52 53 54 54 54 54 54 53 53 53 52 51 50 50 49 49 48 48 48 48 48 49 49 49 49 48 48 48 48 47 47 46 46 45 45 45 45 45 45 44 44 43 43 43 43 43 43 43 43 43 43
45 46 46 46 47 48 48 49 49 49 49 49 49 49 49 50 50 50 51 51 51 51 51 51 51 50 50 50 50 50 49 49 48 48 48 47 47 48 48 48 48 48 48 47 48 48 47 47 47 46 46 45 45 45 45 44 44 43 43 43 43 42 42 42 42 42 42 42 43
46 46 46 46 46 47 47 48 48 48 48 48 48 48 48 49 49 49 49 49 49 49 49 49 49 49 49 49 49 48 48 48 48 48 47 47 47 48 48 48 48 47 47 47 47 47 47 47 46 46 46 45 45 45 44 44 43 43 43 43 42 42 41 41 41 42 41 41 42
46 46 46 46 46 46 47 47 47 47 47 48 48 48 48 48 48 48 48 48 48 48 48 48 48 48 48 48 48 48 48 48 48 47 47 47 48 48 48 48 47 47 46 47 47 47 47 46 46 45 45 45 45 45 44 43 43 43 44 44 42 42 42 42 42 42 42 41 41
46 46 46 46 46 46 46 46 46 47 47 47 46 47 47 47 47 47 47 47 47 48 48 48 48 48 48 48 48 47 47 47 47 48 48 47 48 48 49 48 48 47 47 47 47 47 47 46 45 45 45 45 45 45 44 42 42 43 43 43 43 43 43 43 42 42 42 42 41
46 46 47 47 46 46 45 45 45 45 45 45 45 45 46 46 47 47 47 47 48 48 48 48 48 48 48 48 48 48 47 47 48 48 48 47 48 48 48 48 47 47 47 47 47 47 46 46 45 45 45 45 45 45 44 43 43 43 43 42 42 42 42 42 42 42 41 41 41
46 46 47 47 46 46 45 45 45 45 45 45 45 45 46 46 46 47 47 48 48 48 48 48 48 48 48 48 48 48 48 48 48 47 47 47 47 47 47 47 47 47 47 47 47 46 46 46 45 45 45 45 45 45 44 43 43 43 43 42 42 42 42 42 42 41 41 41 41
45 46 47 47 47 46 45 45 44 44 44 45 45 45 46 46 46 47 48 48 48 47 47 47 47 47 47 47 47 47 47 47 47 47 46 46 46 46 46 46 46 46 46 46 46 45 45 45 45 45 45 45 44 44 44 43 43 43 43 42 42 42 41 41 41 41 41 41 41
45 45 46 46 47 46 46 45 45 44 45 45 45 45 46 46 47 47 47 47 47 47 47 47 47 47 46 46 47 47 47 47 47 47 46 46 45 45 45 44 45 45 45 45 45 45 45 44 44 45 45 45 44 44 44 43 43 43 43 42 42 42 41 41 41 41 41 41 41
45 45 45 46 46 46 46 45 45 45 45 45 46 46 46 46 46 46 46 46 46 46 47 47 46 46 46 46 46 46 46 46 47 47 46 46 45 44 44 44 44 44 44 45 45 44 44 44 44 44 44 44 44 44 43 43 43 42 42 42 42 42 41 41 41 41 41 40 40
44 45 45 45 46 46 46 45 45 45 45 45 45 46 46 46 45 45 45 45 46 46 46 47 47 46 46 46 46 46 46 46 46 46 46 45 45 44 43 43 43 43 44 44 44 44 44 43 43 43 43 44 44 43 43 43 42 42 41 41 41 41 41 40 40 40 39 39 39
44 44 45 45 45 46 45 45 45 45 45 45 45 45 45 45 45 45 45 45 45 45 45 45 45 45 45 46 45 46 46 46 45 45 46 45 45 44 43 43 43 43 43 43 43 43 43 43 43 43 43 43 43 43 43 42 42 41 41 41 41 40 40 39 39 38 38 38 38
44 44 44 45 45 45 45 45 44 44 45 45 45 45 45 45 45 45 45 45 45 45 45 44 45 45 45 45 45 45 45 45 45 45 45 45 45 44 43 42 42 42 42 43 43 43 42 43 43 43 43 43 42 42 42 42 41 41 41 40 40 39 39 38 38 37 37 37 37
45 45 44 44 45 45 45 45 44 44 45 45 45 45 45 45 45 45 45 45 45 44 44 44 44 45 45 45 45 45 45 45 45 45 45 45 45 44 43 42 41 41 41 42 42 42 42 42 42 42 42 42 42 41 41 41 41 40 40 39 38 38 37 37 36 36 36 36 37
45 45 45 44 45 45 45 45 45 44 45 45 45 45 45 45 44 44 44 44 45 44 44 44 44 44 44 44 44 43 43 44 44 44 44 44 44 43 42 42 41 41 41 41 41 42 42 42 42 42 42 42 41 41 41 40 40 39 38 38 37 37 36 36 36 36 36 36 37
45 45 45 44 45 45 45 45 45 45 45 45 45 45 44 44 44 44 44 44 44 44 44 44 44 44 43 42 42 41 41 42 42 43 43 43 43 42 41 41 41 40 40 40 41 41 41 42 42 42 42 42 41 40 40 40 39 38 38 37 37 36 36 35 35 35 35 36 37
45 45 45 45 45 45 45 45 45 45 45 45 45 45 44 44 44 44 44 44 44 44 44 44 44 43 42 41 41 41 41 41 41 41 42 42 42 41 41 41 40 40 39 39 40 41 41 41 42 42 42 41 41 40 40 39 38 38 37 37 36 36 36 35 35 35 35 36 36